Weather Roundup
Issued by NWS

Home | Current Version | Previous Version | Text Only | Print | Product List | Glossary On
Versions: 1 2 3 4 5 6 7 8 9 10 11 12 13 14 15 16 17 18 19 20 21 22 23 24 25 26 27 28 29 30 31 32 33 34 35 36 37 38 39 40 41 42 43 44 45 46 47 48 49 50
000
NZUS93 KARX 040459
HRRWXR

CURRENT HOURLY OBSERVATIONS ACROSS
MUCH OF THE UPPER MISSISSIPPI VALLEY
NATIONAL WEATHER SERVICE LA CROSSE WI
1100 PM CST SAT DEC 03 2016


...SOUTHEAST MINNESOTA...


CITY           SKY/WX    TMP DP  RH WIND       PRES   REMARKS
ROCHESTER      LGT SNOW  30  28  92 SE13      30.14S FOG     WCI  20
ROCHESTER/MAYO CLOUDY    31  27  86 SE7       30.15S WCI  24
WINONA         CLOUDY    32  28  86 SE3       30.19F
AUSTIN         LGT SNOW  32  30  93 SE5       30.13S WCI  27
ALBERT LEA     LGT SNOW  36  36 100 S9        30.12S WCI  29
DODGE CENTER   LGT SNOW  30  28  93 SE8       30.12F WCI  23
PRESTON        CLOUDY    30  27  88 SE6       30.16S FOG     WCI  24
OWATONNA       LGT SNOW  34  30  86 SE8       30.12S WCI  27
FARIBAULT      FLURRIES  34  30  86 MISG      30.12F
$$

...ELSEWHERE IN MINNESOTA...


CITY           SKY/WX    TMP DP  RH WIND       PRES   REMARKS
MINNEAPOLIS    FLURRIES  32  25  75 SE10      30.13F WCI  24
INTNL FALLS    CLEAR     21  17  84 SE7       30.05F WCI  12
DULUTH         MOCLDY    28  21  75 S8        30.10F WCI  20
RED WING       NOT AVBL
REDWOOD FALLS  CLOUDY    34  31  88 S12       30.05F FOG     WCI  25
MANKATO        LGT SNOW  33  32  96 S10       30.10F FOG     WCI  25
WORTHINGTON    MIX PCPN  32  31  96 S17       30.03F WCI  21
FAIRMONT       MIX PCPN  33  32  96 S12       30.09F WCI  24
$$

...SOUTHWEST WISCONSIN...


CITY           SKY/WX    TMP DP  RH WIND       PRES   REMARKS
LA CROSSE      CLOUDY    34  26  72 SE6       30.20S WCI  29
PRAIRIE DU CHI CLOUDY    34  27  76 E5        30.21F WCI  30
BOSCOBEL       CLOUDY    34  27  75 VRB3      30.23S
LONE ROCK      NOT AVBL
PLATTEVILLE    MOCLDY    33  30  91 SE8       30.22S WCI  25
FORT MC COY    CLOUDY    31  26  84 SE5       30.22S WCI  26
MAUSTON-NEW LI CLOUDY    31  26  80 SE3       30.21R
VIROQUA        MOCLDY    30  27  90 SE7       30.18F WCI  23
WIS DELLS      CLOUDY    30  25  80 S5        30.22R WCI  26
$$

...ELSEWHERE IN WISCONSIN...


CITY           SKY/WX    TMP DP  RH WIND       PRES   REMARKS
MILWAUKEE      CLOUDY    31  21  66 SW3       30.26S
MADISON        MOCLDY    30  25  81 S6        30.23S WCI  24
GREEN BAY      CLOUDY    33  26  75 S3        30.24F
EAU CLAIRE     NOT AVBL
BLACK RVR FLS  CLOUDY    31  24  73 CALM      30.20S
MEDFORD        PTCLDY    25  21  83 CALM      30.17R
WAUSAU         CLOUDY    27  21  78 SE5       30.19S WCI  22
WIS RAPIDS     CLOUDY    28  23  81 SE5       30.22R WCI  23
MARSHFIELD     PTCLDY    26  21  81 S5        30.19R WCI  20
RICE LAKE      CLOUDY    29  22  75 SE9       30.18S WCI  21
$$

...NORTHEAST IOWA...


CITY           SKY/WX    TMP DP  RH WIND       PRES   REMARKS
WATERLOO       CLOUDY    35  30  82 SE13      30.16F WCI  26
DUBUQUE        CLOUDY    33  28  81 S7        30.22S WCI  27
DECORAH        MIX PCPN  32  30  93 S8        30.16F WCI  25
MASON CITY     LGT SNOW  33  32  96 S12       30.15R FOG     WCI  24
CHARLES CITY   CLOUDY    34  34 100 SE14      30.15F FOG     WCI  24
OELWEIN        CLOUDY    34  32  93 SE9       30.18S WCI  26
$$

...ELSEWHERE IN IOWA...


CITY           SKY/WX    TMP DP  RH WIND       PRES   REMARKS
DES MOINES     LGT RAIN  37  33  85 SE12      30.13F WCI  29
IOWA CITY      CLOUDY    36  28  73 SE8       30.23S WCI  30
FORT DODGE     CLOUDY    34  30  86 SE6       30.11F WCI  29
MARSHALLTOWN   LGT SNOW  33  32  96 SE14      30.15S FOG     WCI  23
CEDAR RAPIDS   CLOUDY    34  29  82 SE9       30.19S WCI  27
$$

...NORTHERN ILLINOIS...


CITY           SKY/WX    TMP DP  RH WIND       PRES   REMARKS
CHICAGO-OHARE  CLOUDY    31  25  78 S6        30.27F WCI  25
CHICAGO-MIDWAY CLOUDY    32  24  72 SW6       30.28S WCI  26
MOLINE         CLOUDY    35  26  69 SE8       30.24F WCI  29
ROCKFORD       CLOUDY    33  28  81 S8        30.28S WCI  26
PEORIA         CLOUDY    33  28  81 E6        30.27S WCI  28
$$

NOTE: "FAIR" INDICATES FEW OR NO CLOUDS BELOW 12,000 FEET WITH NO
SIGNIFICANT WEATHER AND/OR OBSTRUCTIONS TO VISIBILITY. WIND
SPEEDS ARE IN MILES-PER-HOUR.




USA.gov is the U.S. government's official web portal to all federal, state and local government web resources and services.